軌道要素
Epoch 2016 July 31.0 TT = JDT 2457600.5
T 2016 July 13.37935 TT MPCW
q 2.2915230 (2000.0) P Q
z -0.0001178 Peri. 18.25368 +0.78194680 -0.26666328
+/-0.0000036 Node 325.70262 -0.61906020 -0.22641254
e 1.0002698 Incl. 90.84595 +0.07296348 +0.93681805
From 284 observations 2016 May 31-2017 Apr. 1, mean residual 0".5.
|